Jefferson, NC

11:06 AM EDT on June 23, 2017 (GMT -0400)
Ashe County

Weather History for KGEV - January, 2004

Change the Weather History Date:

Tuesday, January 6, 2004

  Actual Average Record
Temperature  
Mean Temperature 24 °F -  
Max Temperature 30 °F 43 °F 62 °F (2005)
Min Temperature 17 °F 22 °F -4 °F (2014)
Degree Days  
Heating Degree Days 42    
Moisture  
Dew Point 16 °F    
Average Humidity 70    
Maximum Humidity 86    
Minimum Humidity 49    
Precipitation  
Precipitation 0.00 in - - ()
Sea Level Pressure  
Sea Level Pressure 30.13 in    
Wind  
Wind Speed 13 mph (WNW)    
Max Wind Speed 25 mph    
Max Gust Speed 34 mph    
Visibility 9 miles    
Events Snow    
Averages and records for this station are not official NWS values.
T = Trace of Precipitation, MM = Missing Value Source: NWS Daily Summary

Daily Weather History Graph

Daily Weather History Graph

Search for Another Location

Airport or City:

Trip Planner

Search our weather history database for the weather conditions in past years. The results will help you decide how hot, cold, wet, or windy it might be!

Date:

Astronomy

Jan. 06, 2004 Rise Set
Actual Time 7:37 AM EST 5:24 PM EST
Civil Twilight 7:09 AM EST 5:53 PM EST
Nautical Twilight 6:37 AM EST 6:25 PM EST
Astronomical Twilight 6:06 AM EST 6:56 PM EST
Moon 4:27 PM EST (1/6) 7:03 AM EST (1/6)
Length of Visible Light 10h 44m
Length of Day
9h 47m
Waxing Gibbous, 99% of the Moon is Illuminated
Jan 6
Waxing Gibbous
Jan 7
Full
Jan 14
Last Quarter
Jan 21
New
Jan 29
First Quarter

Hourly Weather History & Observations

Time (EST) Temp. Windchill Dew Point Humidity Pressure Visibility Wind Dir Wind Speed Gust Speed Precip Events Conditions
12:01 AM 30.2 °F 22.6 °F 24.8 °F 80% 30.04 in 4.0 mi NW 8.1 mph - N/A Snow Light Snow
12:21 AM 30.2 °F 20.8 °F 24.8 °F 80% 30.04 in 7.0 mi NW 11.5 mph 17.3 mph N/A   Overcast
12:41 AM 30.2 °F 20.8 °F 24.8 °F 80% 30.04 in 10.0 mi NW 11.5 mph 23.0 mph N/A   Overcast
1:02 AM 30.2 °F 18.5 °F 24.8 °F 80% 30.04 in 10.0 mi WNW 17.3 mph 32.2 mph N/A   Overcast
1:21 AM 30.2 °F 18.1 °F 24.8 °F 80% 30.04 in 10.0 mi WNW 18.4 mph 29.9 mph N/A   Overcast
1:41 AM 26.6 °F 11.4 °F 23.0 °F 86% 30.04 in 10.0 mi WNW 25.3 mph 31.1 mph N/A   Overcast
2:01 AM 26.6 °F 14.3 °F 21.2 °F 80% 30.06 in 10.0 mi WNW 16.1 mph 33.4 mph N/A   Overcast
2:21 AM 26.6 °F 17.5 °F 21.2 °F 80% 30.06 in 10.0 mi NW 9.2 mph 28.8 mph N/A   Overcast
2:41 AM 26.6 °F 15.2 °F 21.2 °F 80% 30.06 in 10.0 mi NW 13.8 mph 18.4 mph N/A   Overcast
3:01 AM 26.6 °F 15.2 °F 21.2 °F 80% 30.07 in 10.0 mi NW 13.8 mph 20.7 mph N/A   Overcast
3:21 AM 24.8 °F 11.5 °F 19.4 °F 80% 30.08 in 10.0 mi NNW 17.3 mph 25.3 mph N/A   Overcast
3:41 AM 24.8 °F 12.4 °F 19.4 °F 80% 30.08 in 10.0 mi NW 15.0 mph 28.8 mph N/A   Overcast
4:01 AM 24.8 °F 12.4 °F 19.4 °F 80% 30.08 in 10.0 mi NW 15.0 mph 26.5 mph N/A   Overcast
4:21 AM 24.8 °F 10.7 °F 17.6 °F 74% 30.08 in 10.0 mi NW 19.6 mph 27.6 mph N/A   Overcast
4:42 AM 24.8 °F 13.4 °F 17.6 °F 74% 30.08 in 10.0 mi NW 12.7 mph 20.7 mph N/A   Overcast
5:02 AM 23.0 °F 10.6 °F 17.6 °F 80% 30.09 in 10.0 mi NW 13.8 mph 24.2 mph N/A   Overcast
5:21 AM 23.0 °F 10.6 °F 17.6 °F 80% 30.09 in 10.0 mi NW 13.8 mph 24.2 mph N/A   Overcast
5:41 AM 23.0 °F 11.7 °F 17.6 °F 80% 30.10 in 10.0 mi NW 11.5 mph 19.6 mph N/A   Overcast
6:01 AM 23.0 °F 14.7 °F 15.8 °F 74% 30.11 in 10.0 mi NW 6.9 mph 25.3 mph N/A   Overcast
6:21 AM 23.0 °F 13.1 °F 15.8 °F 74% 30.11 in 10.0 mi WNW 9.2 mph 23.0 mph N/A   Overcast
6:41 AM 23.0 °F 10.1 °F 15.8 °F 74% 30.11 in 10.0 mi NW 15.0 mph 28.8 mph N/A   Overcast
7:01 AM 23.0 °F 13.1 °F 15.8 °F 74% 30.12 in 10.0 mi WNW 9.2 mph 17.3 mph N/A   Overcast
7:21 AM 23.0 °F 9.6 °F 15.8 °F 74% 30.12 in 10.0 mi NW 16.1 mph 23.0 mph N/A   Overcast
7:41 AM 23.0 °F 13.9 °F 15.8 °F 74% 30.13 in 10.0 mi NW 8.1 mph 23.0 mph N/A   Overcast
8:01 AM 23.0 °F 9.2 °F 15.8 °F 74% 30.13 in 10.0 mi NW 17.3 mph 27.6 mph N/A   Overcast
8:21 AM 24.8 °F 14.6 °F 15.8 °F 69% 30.14 in 7.0 mi NNW 10.4 mph 21.9 mph N/A Snow Light Snow
8:42 AM 24.8 °F 15.3 °F 15.8 °F 69% 30.14 in 4.0 mi WNW 9.2 mph - N/A Snow Light Snow
9:01 AM 24.8 °F 14.0 °F 15.8 °F 69% 30.15 in 7.0 mi WNW 11.5 mph 23.0 mph N/A Snow Light Snow
9:21 AM 24.8 °F 12.9 °F 15.8 °F 69% 30.16 in 7.0 mi WNW 13.8 mph 25.3 mph N/A Snow Light Snow
9:41 AM 24.8 °F 14.6 °F 15.8 °F 69% 30.17 in 7.0 mi WNW 10.4 mph 23.0 mph N/A Snow Light Snow
10:01 AM 24.8 °F 16.1 °F 15.8 °F 69% 30.18 in 7.0 mi WNW 8.1 mph 18.4 mph N/A Snow Light Snow
10:21 AM 26.6 °F 16.8 °F 15.8 °F 64% 30.18 in 10.0 mi WNW 10.4 mph 34.5 mph N/A   Mostly Cloudy
10:41 AM 26.6 °F 16.2 °F 17.6 °F 69% 30.18 in 10.0 mi WNW 11.5 mph 20.7 mph N/A   Scattered Clouds
11:01 AM 26.6 °F 15.7 °F 15.8 °F 64% 30.18 in 10.0 mi WNW 12.7 mph 21.9 mph N/A   Mostly Cloudy
11:21 AM 26.6 °F 16.2 °F 17.6 °F 69% 30.18 in 10.0 mi NW 11.5 mph 20.7 mph N/A   Overcast
11:41 AM 26.6 °F 13.8 °F 15.8 °F 64% 30.18 in 10.0 mi WNW 17.3 mph 24.2 mph N/A   Mostly Cloudy
12:01 PM 26.6 °F 14.7 °F 15.8 °F 64% 30.17 in 10.0 mi West 15.0 mph 18.4 mph N/A   Overcast
12:21 PM 26.6 °F 13.8 °F 15.8 °F 64% 30.15 in 10.0 mi WNW 17.3 mph 29.9 mph N/A   Overcast
12:41 PM 26.6 °F 16.2 °F 15.8 °F 64% 30.15 in 10.0 mi West 11.5 mph 20.7 mph N/A   Overcast
1:01 PM 24.8 °F 11.5 °F 14.0 °F 64% 30.15 in 10.0 mi West 17.3 mph 24.2 mph N/A   Overcast
1:21 PM 24.8 °F 11.5 °F 12.2 °F 59% 30.15 in 10.0 mi West 17.3 mph 27.6 mph N/A   Overcast
1:41 PM 24.8 °F 11.9 °F 12.2 °F 59% 30.14 in 10.0 mi West 16.1 mph 28.8 mph N/A   Overcast
2:02 PM 24.8 °F 11.9 °F 12.2 °F 59% 30.13 in 10.0 mi West 16.1 mph 21.9 mph N/A Snow Light Snow
2:21 PM 24.8 °F 11.9 °F 15.8 °F 69% 30.13 in 5.0 mi WNW 16.1 mph 25.3 mph N/A Snow Light Snow
2:41 PM 24.8 °F 12.4 °F 15.8 °F 69% 30.13 in 5.0 mi West 15.0 mph 31.1 mph N/A Snow Light Snow
3:02 PM 24.8 °F 12.4 °F 12.2 °F 59% 30.13 in 10.0 mi WNW 15.0 mph 27.6 mph N/A Snow Light Snow
3:22 PM 24.8 °F 14.6 °F 10.4 °F 54% 30.14 in 10.0 mi West 10.4 mph 21.9 mph N/A   Overcast
3:41 PM 24.8 °F 13.4 °F 10.4 °F 54% 30.15 in 10.0 mi WNW 12.7 mph 23.0 mph N/A   Overcast
4:02 PM 23.0 °F 12.4 °F 12.2 °F 63% 30.16 in 5.0 mi West 10.4 mph 28.8 mph N/A Snow Light Snow
4:21 PM 21.2 °F 12.6 °F 12.2 °F 68% 30.16 in 2.0 mi West 6.9 mph 26.5 mph N/A Snow Light Snow
4:42 PM 21.2 °F 13.6 °F 15.8 °F 80% 30.16 in 1.0 mi NNW 5.8 mph - N/A Snow Light Snow
5:01 PM 21.2 °F 12.6 °F 14.0 °F 74% 30.18 in 1.5 mi WNW 6.9 mph 16.1 mph N/A Snow Light Snow
5:21 PM 19.4 °F 3.2 °F 12.2 °F 74% 30.18 in 2.0 mi WNW 20.7 mph 27.6 mph N/A Snow Light Snow
5:42 PM 19.4 °F 4.5 °F 8.6 °F 63% 30.18 in 10.0 mi WNW 17.3 mph 25.3 mph N/A   Overcast
6:01 PM 17.6 °F 7.3 °F 6.8 °F 63% 30.20 in 10.0 mi NW 8.1 mph 20.7 mph N/A   Mostly Cloudy
6:21 PM 17.6 °F 7.3 °F 5.0 °F 58% 30.20 in 10.0 mi WNW 8.1 mph - N/A   Clear
6:42 PM 17.6 °F 5.0 °F 3.2 °F 53% 30.20 in 10.0 mi WNW 11.5 mph 25.3 mph N/A   Clear
7:01 PM 17.6 °F 5.0 °F 1.4 °F 49% 30.20 in 10.0 mi WNW 11.5 mph 19.6 mph N/A   Clear
7:21 PM 17.6 °F - 1.4 °F 49% 30.20 in 10.0 mi Calm Calm - N/A   Clear
7:41 PM 15.8 °F 2.7 °F -0.4 °F 49% 30.21 in 10.0 mi WNW 11.5 mph 16.1 mph N/A   Clear
8:01 PM 15.8 °F 5.1 °F -2.2 °F 45% 30.22 in 10.0 mi WNW 8.1 mph 17.3 mph N/A   Clear
8:21 PM 15.8 °F 7.2 °F -2.2 °F 45% 30.23 in 10.0 mi NW 5.8 mph 18.4 mph N/A   Clear
8:41 PM 15.8 °F - -2.2 °F 45% 30.23 in 10.0 mi Calm Calm - N/A   Clear
9:02 PM 15.8 °F 8.6 °F -0.4 °F 49% 30.24 in 10.0 mi West 4.6 mph - N/A   Clear
9:21 PM 15.8 °F 4.2 °F -0.4 °F 49% 30.24 in 10.0 mi NW 9.2 mph - N/A   Clear
9:41 PM 15.8 °F 4.2 °F -0.4 °F 49% 30.24 in 10.0 mi WNW 9.2 mph - N/A   Clear
10:01 PM 15.8 °F 4.2 °F -2.2 °F 45% 30.24 in 10.0 mi WNW 9.2 mph - N/A   Clear
10:21 PM 14.0 °F 8.2 °F -2.2 °F 49% 30.24 in 10.0 mi WNW 3.5 mph - N/A   Clear
10:41 PM 12.2 °F 6.1 °F -4.0 °F 48% 30.24 in 10.0 mi West 3.5 mph - N/A   Clear
11:01 PM 12.2 °F - -5.8 °F 45% 30.23 in 10.0 mi Calm Calm - N/A   Clear
11:21 PM 12.2 °F - -4.0 °F 48% 30.23 in 10.0 mi Calm Calm - N/A   Clear
11:41 PM 12.2 °F 2.9 °F -2.2 °F 53% 30.23 in 10.0 mi WNW 5.8 mph - N/A   Clear